Location: Unspecified
(0.0000°N, 0.0000°E)
Time: 08:04:00
(UTC+00:00)

ATLAS 5 CENTAUR DEB - Pass Details

Date: 06 December 2025
Orbit: 8829 x 35105 km, 13.2° (Epoch: 17 January)

Event Time Altitude Azimuth Distance (km) Brightness Sun altitude
Rises 23:31:15 0° 259° (WSW) 14,499 ? -67.0°
Reaches altitude 10° 23:40:04 10° 260° (W) 14,067 ? -67.4°
Maximum altitude 01:58:48 76° 333° (NNW) 25,007 ? -51.6°
Drops below altitude 10° 12:07:17 10° 106° (ESE) 13,046 ? 67.1°
Sets 12:15:32 0° 105° (ESE) 13,859 ? 66.7°
